Weather in Znamenka

Russia / Tambov Oblast     52°28′29″N   40°35′03″E
temp.,
°C
wind,
m/s
gust,
m/s
humid.,
%
clouds,
%
prec.,
mm/h
press.,
hPa
HPBL,
m
15 may, sat
sat1500:00+17se5128933 0.0 1011212
03:00+16sse3591100 0.0 101169
06:00+17sse499352 0.3 1011219
09:00+20sse3787100 0.6 1011337
12:00+19s4880100 1.8 1013380
15:00+23s57625 2.0 10131410
18:00+22ssw47705 0.4 1012263
21:00+16sw33804 0.4 101338
16 may, sun
sun1600:00+15ssw11836 0.0 101411
03:00+14sse228357 0.0 101511
06:00+16s11825 0.0 101533
09:00+21sse22650 0.0 1015480
12:00+24sse22524 0.0 10151444
15:00+25se12478 0.0 10141762
18:00+24e236393 0.1 1013116
21:00+19ese3382100 0.1 101423
17 may, mon
mon1700:00+17ese337526 0.0 101425
03:00+15e487975 0.0 1014114
06:00+16e4982100 0.0 1013174
09:00+22se5862100 0.0 1013339
12:00+25se694993 0.0 1013642
15:00+27ese711531 0.0 10121125
18:00+24se713621 0.0 1011561
21:00+20ese6176889 0.0 1011376
18 may, tue
tue1800:00+19se7185467 0.0 1010447
03:00+16se5136070 0.0 1009261
06:00+15se5137110 0.0 1010267
09:00+21sse611585 0.0 1010491
12:00+25sse6846100 0.0 1009877
15:00+25sse5750100 0.0 10091364
18:00+22sse376677 0.0 1008212
21:00+18wsw3888100 0.2 1009205
19 may, wed
wed1900:00+16sse3490100 0.3 100993
03:00+16se4694100 1.5 1009127
06:00+16sse4989100 0.1 1008261
09:00+19ssw7117780 0.2 1008849
12:00+18ssw7108294 2.2 1009962
15:00+18ssw69710 2.6 10101231
18:00+18wsw577123 0.2 1010768
21:00+15wsw2283100 0.3 101128